Regional Weather Roundup
Issued by NWS

Home | Current Version | Previous Version | Text Only | Print | Product List | Glossary On
Versions: 1 2 3 4 5 6 7 8 9 10 11 12 13 14 15 16 17 18 19 20 21 22 23 24 25 26 27
000
ASPQ40 PGUM 270712
RWRPQ
WEATHER ROUNDUP FOR THE MARIANAS AND MICRONESIA
NATIONAL WEATHER SERVICE TIYAN GU
500 PM CHST TUE JUN 27 2017

GUZ001>004-270800-
MARIANA ISLANDS-

CITY           SKY/WX    TMP DP  RH WIND       PRES   REMARKS
GUAM AIRPORT   MOSUNNY   84  77  79 SE8       29.88F HX  94
ANDERSEN AFB   MOSUNNY   82  77  83 E9        29.89R HX  91
ROTA AIRPORT   MOSUNNY   82  77  83 E15       29.88F HX  91
TINIAN AP      MOSUNNY   79  72  78 SE6       29.87R
SAIPAN AP      MOSUNNY   90  77  66 E14G22    29.88S HX 102

$$

PMZ161-270800-
REPUBLIC OF PALAU-

CITY           SKY/WX    TMP DP  RH WIND       PRES   REMARKS
KOROR AP       PTSUNNY   86  75  70 NW3       29.79S HX  95
KOROR WSO      PTSUNNY   88  75  66 NW6       29.80F HX  97

$$

PMZ171>174-270800-
FEDERATED STATES OF MICRONESIA-

CITY           SKY/WX    TMP DP  RH WIND       PRES   REMARKS
YAP AIRPORT    PTSUNNY   82  77  83 N8        29.80S HX  91
CHUUK AP       CLOUDY    77  73  88 VRB6      29.83R
POHNPEI AP     NOT AVBL
POHNPEI WSO    CLOUDY    82  77  83 N6        29.83S HX  91
KOSRAE AP      NOT AVBL

$$

PMZ181-270800-
REPUBLIC OF THE MARSHALL ISLANDS-

CITY           SKY/WX    TMP DP  RH WIND       PRES   REMARKS
KWAJALEIN AP   CLOUDY    84  75  74 E20       29.81R HX  92
MAJURO AP      MOCLDY    84  77  79 NE17      29.79  HX  94
MAJURO WSO     PTCLDY    84  75  74 E14       29.79R HX  92

$$





USA.gov is the U.S. government's official web portal to all federal, state and local government web resources and services.